Vorticity
2 7 10 6 6 8 8 9 11 7 7 10 7 5 8 7 3 4 4 3 5 5 4 4 4 5 6 6 5 16 9 4 7 8 7 4 5 12 6 5 4 9 12 6 9
11 10 8 5 8 11 10 10 11 8 8 10 7 7 7 4 3 7 8 7 6 7 8 8 8 8 7 12 8 2 8 6 5 4 8 8 8 4 3 10 6 2 9 11 14
10 9 5 7 6 10 11 10 9 7 11 9 6 8 3 5 10 15 13 9 9 8 9 7 7 9 4 9 8 -9 5 4 4 -1 3 7 4 7 2 8 10 6 6 12 15
8 6 6 7 10 8 13 10 10 14 10 7 9 4 10 13 6 8 7 7 6 5 6 6 7 7 5 10 24 12 8 5 3 -1 4 9 8 6 3 7 11 9 8 9 13
6 7 8 6 6 9 10 10 8 7 9 7 10 13 10 7 6 8 8 7 6 6 6 7 7 7 5 5 9 14 16 9 3 8 6 9 21 5 5 3 9 11 17 9 10
9 10 8 9 12 7 6 7 6 8 12 13 9 5 5 6 6 5 4 4 3 3 3 5 6 6 6 4 10 8 8 1 1 -1 7 7 9 -3 7 3 7 7 8 12 11
9 8 9 10 11 12 12 12 13 13 8 7 5 6 5 5 3 3 2 2 3 3 3 4 5 7 5 5 11 4 12 -1 -1 6 4 6 8 13 14 4 1 10 5 13 12
6 6 6 5 5 6 6 7 6 6 5 4 4 5 4 3 3 3 2 2 1 3 2 4 6 7 6 6 9 4 11 5 10 5 8 2 13 13 9 5 2 4 9 6 14
7 7 7 7 6 5 5 5 6 6 5 5 5 5 5 4 3 3 2 2 3 3 3 3 6 5 7 6 9 5 -0 3 7 -1 -7 3 12 10 11 10 10 5 6 9 7
4 5 5 5 5 6 8 8 7 5 5 3 3 3 3 3 3 3 4 4 4 4 3 4 8 5 7 7 5 3 4 4 10 5 1 6 8 9 7 7 10 10 12 8 11
6 6 5 4 4 4 4 4 4 5 5 6 6 6 7 6 7 7 5 6 5 5 6 5 5 4 6 3 7 5 4 6 8 8 12 8 1 14 12 8 15 12 18 6 14
8 7 6 6 5 6 6 6 3 5 2 3 3 2 3 3 2 3 5 7 8 6 5 6 3 7 7 5 5 8 5 4 8 7 7 9 6 16 -6 2 17 1 10 5 13
8 7 6 6 6 5 5 5 6 9 8 8 6 5 4 2 2 0 6 7 10 12 8 7 6 6 6 6 7 8 9 4 9 6 10 22 10 7 13 9 3 -7 4 6 6
7 7 8 8 6 6 6 7 8 8 8 10 9 8 8 4 5 9 10 9 9 13 10 12 7 8 7 10 11 6 4 5 11 10 2 5 -2 2 14 13 0 6 4 6 7
5 5 5 8 11 11 12 13 17 17 11 14 20 17 15 17 18 17 15 13 10 10 14 5 9 10 11 14 10 16 13 11 10 7 5 3 9 3 2 9 2 8 12 6 8
8 10 13 13 13 13 7 6 4 8 10 6 3 5 9 10 15 19 14 12 13 11 15 16 11 10 16 17 13 8 6 10 7 8 9 -0 4 3 8 15 -2 1 3 7 15
15 13 11 12 12 13 11 8 11 11 6 4 9 14 9 9 11 7 11 12 14 15 11 6 14 7 11 12 10 8 5 5 3 9 16 -1 3 6 -1 2 3 1 3 -0 -2
9 8 10 9 9 12 14 17 14 7 7 7 11 6 17 13 4 6 2 7 5 13 16 9 12 10 10 6 2 2 3 3 11 7 13 -10 6 -3 3 9 11 11 -0 -3 8
12 8 7 6 6 10 13 15 8 7 6 8 7 9 23 13 11 6 3 4 8 5 4 3 12 3 3 3 2 6 10 5 9 12 14 4 5 6 7 8 1 -0 6 -1 10
9 8 6 6 5 8 11 13 11 4 7 6 7 7 2 2 10 12 7 5 4 4 4 10 16 14 9 4 8 14 4 12 18 9 13 21 9 3 1 3 11 9 6 1 3
8 9 5 5 9 15 11 7 5 5 14 12 8 8 6 8 6 10 10 8 -2 4 3 7 -6 9 5 8 5 -1 8 11 14 14 8 19 21 18 11 1 -8 -0 6 8 1
7 6 6 15 15 14 12 16 16 5 8 9 13 6 4 2 2 1 5 4 6 11 6 4 12 5 6 13 9 11 17 -4 7 16 16 12 2 5 10 1 4 0 3 2 7
6 8 12 10 10 7 10 12 13 7 5 7 9 11 12 3 8 6 4 4 3 5 7 6 7 8 10 -3 -2 -2 6 8 1 -1 7 9 3 6 1 -1 1 3 2 0 4
10 16 10 8 4 4 6 3 6 4 3 3 3 5 9 15 15 14 16 8 8 3 3 6 7 7 6 12 19 4 -1 2 2 2 -1 -5 10 1 6 22 3 16 8 4 3
12 8 9 10 7 4 2 4 6 6 3 4 2 3 5 6 8 12 13 25 23 2 3 5 3 4 5 6 4 3 5 4 -1 1 7 10 6 11 -1 0 5 -0 -10 3 -3
9 8 7 6 7 5 5 5 7 7 6 6 7 9 10 11 11 14 16 16 18 24 5 -3 -3 0 -3 5 5 -3 -0 9 14 -7 -1 -2 7 7 -4 2 -0 5 5 13 -5
8 8 7 8 8 8 8 10 11 10 11 10 10 10 10 7 6 9 10 11 15 15 20 22 17 2 -0 -1 3 7 6 -0 -2 12 11 2 -3 -1 2 11 1 4 2 2 3
Height
5903 5903 5904 5904 5903 5903 5903 5903 5904 5905 5906 5907 5908 5909 5909 5909 5910 5910 5910 5910 5908 5908 5909 5909 5909 5909 5906 5906 5906 5907 5906 5902 5902 5902 5901 5901 5899 5897 5896 5895 5894 5894 5894 5893 5892
5901 5902 5902 5902 5902 5902 5902 5902 5903 5904 5905 5906 5907 5908 5908 5909 5910 5910 5911 5909 5908 5909 5909 5909 5909 5909 5908 5908 5908 5908 5906 5904 5904 5903 5903 5903 5902 5899 5897 5895 5893 5892 5894 5893 5891
5899 5900 5901 5901 5901 5901 5901 5901 5902 5903 5905 5906 5907 5907 5908 5909 5909 5909 5909 5909 5909 5909 5909 5909 5909 5909 5907 5907 5908 5907 5907 5904 5906 5906 5906 5906 5904 5901 5898 5895 5893 5893 5894 5893 5892
5898 5899 5900 5901 5901 5901 5901 5901 5902 5903 5904 5906 5906 5907 5907 5908 5910 5909 5910 5910 5909 5910 5910 5910 5909 5909 5908 5908 5909 5908 5906 5906 5907 5906 5905 5905 5904 5902 5898 5896 5895 5894 5893 5893 5892
5897 5898 5899 5900 5900 5901 5901 5901 5902 5903 5904 5905 5905 5906 5907 5909 5910 5910 5911 5911 5910 5910 5911 5910 5910 5910 5909 5909 5910 5908 5906 5905 5906 5905 5905 5903 5903 5902 5900 5898 5896 5894 5892 5891 5891
5897 5898 5899 5899 5899 5900 5901 5901 5902 5903 5904 5905 5905 5906 5908 5910 5910 5911 5911 5911 5911 5911 5911 5911 5910 5910 5909 5908 5910 5908 5906 5905 5904 5904 5903 5902 5900 5902 5901 5899 5897 5895 5893 5891 5891
5896 5897 5898 5898 5899 5899 5900 5901 5902 5903 5904 5905 5906 5907 5908 5909 5910 5911 5911 5911 5911 5911 5911 5911 5910 5910 5909 5908 5910 5908 5907 5907 5905 5905 5903 5902 5902 5901 5901 5899 5897 5896 5893 5892 5892
5896 5897 5897 5898 5899 5899 5900 5901 5902 5903 5904 5905 5906 5907 5908 5908 5909 5910 5911 5911 5910 5910 5911 5911 5910 5909 5908 5909 5910 5908 5907 5907 5906 5905 5904 5903 5903 5901 5902 5900 5898 5896 5894 5893 5893
5895 5896 5896 5897 5898 5899 5900 5901 5902 5903 5904 5904 5906 5906 5907 5907 5908 5909 5909 5910 5910 5909 5909 5910 5910 5909 5908 5908 5909 5908 5907 5907 5906 5905 5904 5904 5903 5902 5902 5900 5898 5896 5894 5894 5894
5893 5894 5895 5896 5897 5897 5899 5900 5901 5902 5903 5903 5904 5906 5906 5907 5906 5906 5908 5908 5908 5908 5908 5909 5909 5907 5906 5906 5907 5906 5906 5905 5906 5905 5902 5902 5903 5902 5901 5900 5898 5896 5895 5894 5894
5891 5892 5893 5894 5895 5896 5897 5898 5901 5902 5901 5902 5903 5903 5903 5904 5904 5903 5904 5905 5905 5905 5905 5907 5906 5905 5904 5904 5905 5904 5904 5904 5904 5903 5902 5901 5902 5901 5899 5898 5898 5896 5896 5894 5895
5888 5889 5889 5890 5892 5893 5894 5895 5897 5898 5898 5899 5899 5899 5901 5900 5900 5900 5900 5901 5901 5900 5901 5903 5902 5903 5902 5901 5903 5903 5902 5902 5902 5901 5900 5899 5900 5902 5900 5899 5898 5897 5896 5894 5894
5884 5885 5886 5887 5888 5889 5890 5892 5893 5893 5894 5895 5895 5894 5897 5896 5895 5895 5896 5896 5897 5896 5896 5897 5897 5899 5899 5899 5900 5900 5901 5900 5900 5899 5898 5898 5899 5898 5899 5899 5899 5897 5897 5895 5892
5881 5881 5882 5883 5885 5884 5886 5887 5888 5888 5889 5890 5889 5889 5890 5889 5890 5891 5890 5892 5893 5892 5892 5894 5893 5894 5895 5896 5897 5897 5897 5897 5899 5897 5898 5897 5897 5896 5897 5898 5900 5899 5897 5895 5893
5876 5877 5878 5878 5879 5880 5881 5882 5882 5883 5884 5884 5883 5882 5881 5884 5884 5885 5886 5886 5887 5886 5890 5889 5889 5891 5892 5893 5893 5895 5894 5895 5896 5896 5896 5896 5897 5895 5895 5897 5900 5899 5898 5896 5893
5871 5872 5873 5873 5874 5875 5876 5878 5878 5880 5879 5878 5877 5877 5878 5879 5881 5881 5882 5883 5884 5884 5886 5885 5886 5888 5889 5889 5891 5892 5892 5892 5892 5893 5893 5893 5894 5895 5896 5896 5897 5899 5899 5896 5893
5867 5868 5869 5870 5870 5871 5871 5873 5874 5873 5875 5875 5875 5875 5874 5875 5877 5877 5877 5878 5880 5881 5882 5882 5884 5885 5885 5887 5887 5888 5888 5887 5889 5889 5892 5890 5892 5893 5893 5894 5896 5896 5897 5897 5895
5863 5864 5865 5867 5867 5867 5867 5868 5868 5867 5868 5870 5873 5872 5871 5871 5873 5874 5875 5875 5876 5878 5880 5881 5882 5882 5884 5885 5885 5885 5885 5884 5884 5886 5887 5885 5888 5890 5891 5893 5893 5894 5895 5895 5895
5859 5861 5862 5863 5864 5864 5864 5864 5863 5862 5864 5865 5868 5869 5867 5868 5870 5872 5873 5873 5873 5874 5877 5878 5878 5879 5881 5881 5882 5881 5881 5881 5881 5881 5883 5883 5883 5886 5888 5890 5890 5890 5891 5892 5891
5856 5858 5859 5860 5860 5860 5860 5860 5859 5856 5859 5861 5863 5866 5866 5865 5867 5869 5871 5872 5870 5869 5868 5870 5873 5875 5875 5876 5877 5878 5878 5878 5877 5877 5878 5880 5882 5882 5883 5884 5884 5885 5886 5888 5888
5853 5854 5855 5855 5856 5856 5856 5855 5854 5853 5856 5857 5858 5860 5862 5863 5863 5865 5867 5868 5864 5864 5864 5866 5867 5869 5871 5872 5874 5874 5874 5873 5873 5874 5874 5876 5879 5879 5880 5878 5879 5879 5881 5884 5886
5849 5850 5851 5851 5852 5852 5852 5853 5853 5851 5852 5854 5855 5854 5854 5856 5857 5857 5858 5859 5862 5861 5862 5862 5862 5863 5865 5867 5869 5869 5869 5868 5869 5871 5870 5871 5874 5874 5875 5875 5876 5876 5878 5880 5883
5847 5846 5846 5847 5848 5848 5849 5849 5849 5848 5847 5848 5849 5850 5849 5849 5850 5851 5851 5853 5853 5854 5854 5856 5856 5859 5859 5859 5861 5862 5864 5864 5864 5864 5866 5867 5871 5869 5870 5872 5873 5873 5874 5875 5877
5843 5843 5843 5843 5844 5844 5844 5844 5845 5844 5841 5841 5842 5843 5845 5845 5845 5845 5846 5847 5847 5847 5847 5847 5848 5849 5853 5857 5857 5856 5858 5857 5860 5860 5860 5861 5864 5863 5865 5868 5869 5870 5870 5870 5873
5838 5839 5839 5839 5839 5839 5839 5840 5840 5838 5838 5836 5835 5835 5836 5836 5836 5835 5836 5838 5838 5839 5838 5839 5839 5840 5842 5846 5849 5849 5851 5851 5851 5853 5855 5859 5858 5859 5860 5859 5861 5863 5864 5867 5868
5833 5832 5833 5833 5833 5833 5833 5833 5833 5831 5829 5827 5826 5824 5823 5822 5822 5823 5824 5825 5827 5828 5829 5828 5828 5830 5834 5835 5836 5839 5843 5845 5846 5846 5846 5848 5851 5854 5854 5854 5856 5857 5858 5860 5864
5828 5827 5826 5826 5825 5824 5824 5823 5822 5822 5819 5816 5815 5813 5809 5806 5806 5807 5809 5811 5813 5814 5815 5815 5816 5817 5821 5825 5827 5829 5832 5835 5838 5840 5840 5840 5843 5844 5847 5847 5848 5850 5853 5855 5856